TimeCST,TemperatureF,Dew PointF,Humidity,Sea Level PressureIn,VisibilityMPH,Wind Direction,Wind SpeedMPH,Gust SpeedMPH,PrecipitationIn,Events,Conditions,WindDirDegrees,DateUTC
12:15 AM,-0.4,-7.6,72,30.44,2.5,North,25.3,-,N/A,Snow,Light Snow,360,2014-02-05 06:15:00
12:35 AM,-0.4,-7.6,72,30.44,3.0,North,23.0,31.1,N/A,Snow,Light Snow,360,2014-02-05 06:35:00
12:55 AM,-0.4,-7.6,72,30.45,3.0,North,23.0,-,N/A,Snow,Light Snow,360,2014-02-05 06:55:00
1:15 AM,-0.4,-7.6,72,30.45,3.0,North,19.6,26.5,N/A,Snow,Light Snow,350,2014-02-05 07:15:00
1:35 AM,-0.4,-7.6,72,30.45,2.5,North,20.7,27.6,N/A,Snow,Light Snow,350,2014-02-05 07:35:00
1:55 AM,-0.4,-7.6,72,30.46,3.0,North,23.0,29.9,N/A,Snow,Light Snow,360,2014-02-05 07:55:00
2:15 AM,-0.4,-9.4,66,30.47,2.5,North,21.9,31.1,N/A,Snow,Light Snow,350,2014-02-05 08:15:00
2:35 AM,-0.4,-9.4,66,30.47,3.0,North,21.9,29.9,N/A,Snow,Light Snow,350,2014-02-05 08:35:00
2:55 AM,-0.4,-9.4,66,30.47,5.0,North,24.2,29.9,N/A,Rain,Freezing Rain,350,2014-02-05 08:55:00
3:15 AM,-0.4,-9.4,66,30.47,5.0,North,21.9,31.1,N/A,Rain,Freezing Rain,360,2014-02-05 09:15:00
3:35 AM,-0.4,-9.4,66,30.47,4.0,North,21.9,29.9,N/A,Rain,Freezing Rain,360,2014-02-05 09:35:00
3:55 AM,-0.4,-9.4,66,30.48,4.0,North,20.7,29.9,N/A,Rain,Freezing Rain,350,2014-02-05 09:55:00
4:15 AM,-0.4,-7.6,72,30.47,4.0,North,21.9,-,N/A,Rain,Freezing Rain,350,2014-02-05 10:15:00
4:35 AM,-0.4,-7.6,72,30.48,4.0,North,19.6,27.6,N/A,Rain,Freezing Rain,350,2014-02-05 10:35:00
4:55 AM,-0.4,-7.6,72,30.48,4.0,North,21.9,-,N/A,Rain,Freezing Rain,350,2014-02-05 10:55:00
5:15 AM,-0.4,-7.6,72,30.49,4.0,North,17.3,23.0,N/A,Rain,Freezing Rain,350,2014-02-05 11:15:00
5:35 AM,-0.4,-7.6,72,30.49,5.0,NNW,17.3,23.0,N/A,Rain,Freezing Rain,340,2014-02-05 11:35:00
5:55 AM,-0.4,-7.6,72,30.49,5.0,NNW,16.1,-,N/A,Rain,Freezing Rain,340,2014-02-05 11:55:00
6:15 AM,-0.4,-7.6,72,30.50,4.0,NNW,15.0,-,N/A,Rain,Freezing Rain,330,2014-02-05 12:15:00
6:35 AM,-0.4,-7.6,72,30.50,5.0,NNW,13.8,-,N/A,Rain,Freezing Rain,340,2014-02-05 12:35:00
6:55 AM,-0.4,-5.8,78,30.50,6.0,NNW,13.8,-,N/A,Rain,Freezing Rain,330,2014-02-05 12:55:00
7:15 AM,-0.4,-5.8,78,30.51,10.0,NNW,13.8,-,N/A,,Overcast,330,2014-02-05 13:15:00
7:35 AM,1.4,-5.8,72,30.51,7.0,NNW,13.8,-,N/A,,Overcast,330,2014-02-05 13:35:00
7:55 AM,1.4,-5.8,72,30.51,4.0,NNW,11.5,-,N/A,,Haze,330,2014-02-05 13:55:00
8:15 AM,1.4,-5.8,72,30.52,5.0,NNW,15.0,-,N/A,Snow,Light Snow,330,2014-02-05 14:15:00
8:35 AM,1.4,-5.8,72,30.53,8.0,NNW,13.8,-,N/A,,Overcast,330,2014-02-05 14:35:00
8:55 AM,1.4,-7.6,66,30.53,10.0,NNW,15.0,-,N/A,,Overcast,330,2014-02-05 14:55:00
9:15 AM,1.4,-7.6,66,30.53,10.0,NNW,13.8,-,N/A,,Overcast,330,2014-02-05 15:15:00
9:35 AM,1.4,-7.6,66,30.54,10.0,NNW,20.7,-,N/A,,Overcast,330,2014-02-05 15:35:00
9:55 AM,1.4,-7.6,66,30.54,7.0,NNW,18.4,24.2,N/A,,Overcast,340,2014-02-05 15:55:00
10:15 AM,1.4,-7.6,66,30.54,6.0,NNW,19.6,-,N/A,,Haze,330,2014-02-05 16:15:00
10:35 AM,1.4,-7.6,66,30.55,9.0,NNW,17.3,25.3,N/A,,Overcast,330,2014-02-05 16:35:00
10:55 AM,1.4,-7.6,66,30.55,10.0,NNW,17.3,-,N/A,,Overcast,330,2014-02-05 16:55:00
11:15 AM,1.4,-7.6,66,30.55,10.0,NNW,19.6,-,N/A,,Overcast,330,2014-02-05 17:15:00
11:35 AM,1.4,-9.4,61,30.55,10.0,NNW,19.6,-,N/A,,Overcast,340,2014-02-05 17:35:00
11:55 AM,1.4,-9.4,61,30.55,10.0,NNW,18.4,-,N/A,,Overcast,340,2014-02-05 17:55:00
12:15 PM,3.2,-7.6,61,30.55,9.0,NNW,18.4,24.2,N/A,,Mostly Cloudy,330,2014-02-05 18:15:00
12:35 PM,3.2,-7.6,61,30.54,7.0,NW,19.6,-,N/A,Snow,Light Snow,320,2014-02-05 18:35:00
12:55 PM,3.2,-7.6,61,30.54,7.0,NW,18.4,26.5,N/A,,Freezing Rain,320,2014-02-05 18:55:00
1:15 PM,3.2,-7.6,61,30.53,5.0,NW,20.7,-,N/A,Snow,Light Snow,320,2014-02-05 19:15:00
1:35 PM,3.2,-7.6,61,30.52,10.0,NNW,20.7,27.6,N/A,,Mostly Cloudy,330,2014-02-05 19:35:00
1:55 PM,3.2,-7.6,61,30.52,10.0,NNW,20.7,27.6,N/A,,Mostly Cloudy,330,2014-02-05 19:55:00
2:15 PM,3.2,-7.6,61,30.52,9.0,NW,19.6,29.9,N/A,,Mostly Cloudy,320,2014-02-05 20:15:00
2:35 PM,3.2,-5.8,66,30.51,3.0,NNW,19.6,26.5,N/A,,Freezing Rain,330,2014-02-05 20:35:00
2:55 PM,3.2,-5.8,66,30.51,4.0,NNW,20.7,-,N/A,,Freezing Rain,340,2014-02-05 20:55:00
3:15 PM,3.2,-4.0,72,30.52,2.0,NNW,21.9,-,N/A,,Freezing Rain,330,2014-02-05 21:15:00
3:35 PM,3.2,-9.4,56,30.53,10.0,NNW,20.7,-,N/A,,Freezing Rain,330,2014-02-05 21:35:00
3:55 PM,3.2,-9.4,56,30.54,10.0,NW,18.4,-,N/A,,Mostly Cloudy,320,2014-02-05 21:55:00
4:15 PM,3.2,-5.8,66,30.54,4.0,NNW,19.6,25.3,N/A,Snow,Light Snow,340,2014-02-05 22:15:00
4:35 PM,1.4,-9.4,61,30.54,10.0,NNW,18.4,-,N/A,,Scattered Clouds,330,2014-02-05 22:35:00
4:55 PM,1.4,-9.4,61,30.54,10.0,NNW,16.1,23.0,N/A,,Partly Cloudy,330,2014-02-05 22:55:00
5:15 PM,1.4,-9.4,61,30.55,10.0,NNW,12.7,-,N/A,,Mostly Cloudy,330,2014-02-05 23:15:00
5:35 PM,-0.4,-9.4,66,30.55,10.0,NW,10.4,-,N/A,,Overcast,320,2014-02-05 23:35:00
5:55 PM,-2.2,-9.4,71,30.56,10.0,NW,9.2,-,N/A,,Overcast,320,2014-02-05 23:55:00
6:15 PM,-4.0,-11.2,71,30.56,10.0,NW,8.1,-,N/A,,Mostly Cloudy,310,2014-02-06 00:15:00
6:35 PM,-4.0,-11.2,71,30.56,10.0,WNW,8.1,-,N/A,,Mostly Cloudy,300,2014-02-06 00:35:00
6:55 PM,-4.0,-11.2,71,30.56,10.0,NW,10.4,-,N/A,,Scattered Clouds,310,2014-02-06 00:55:00
7:15 PM,-5.8,-13.0,71,30.55,10.0,WNW,8.1,-,N/A,,Scattered Clouds,300,2014-02-06 01:15:00
7:35 PM,-4.0,-11.2,71,30.55,10.0,WNW,8.1,-,N/A,,Scattered Clouds,300,2014-02-06 01:35:00
7:55 PM,-5.8,-13.0,71,30.55,10.0,WNW,9.2,-,N/A,,Partly Cloudy,300,2014-02-06 01:55:00
8:15 PM,-5.8,-13.0,71,30.54,10.0,WNW,9.2,-,N/A,,Clear,290,2014-02-06 02:15:00
8:35 PM,-4.0,-13.0,65,30.54,10.0,WNW,9.2,-,N/A,,Clear,300,2014-02-06 02:35:00
8:55 PM,-5.8,-13.0,71,30.54,10.0,WNW,9.2,-,N/A,,Clear,300,2014-02-06 02:55:00
9:15 PM,-5.8,-13.0,71,30.54,10.0,WNW,10.4,-,N/A,,Clear,300,2014-02-06 03:15:00
9:35 PM,-5.8,-13.0,71,30.54,10.0,WNW,8.1,-,N/A,,Clear,300,2014-02-06 03:35:00
9:55 PM,-5.8,-13.0,71,30.53,10.0,WNW,9.2,-,N/A,,Clear,290,2014-02-06 03:55:00
10:15 PM,-7.6,-14.8,71,30.53,10.0,WNW,8.1,-,N/A,,Clear,290,2014-02-06 04:15:00
10:35 PM,-7.6,-14.8,71,30.53,10.0,WNW,10.4,-,N/A,,Clear,290,2014-02-06 04:35:00
10:55 PM,-5.8,-13.0,71,30.53,10.0,WNW,10.4,-,N/A,,Clear,290,2014-02-06 04:55:00
11:15 PM,-7.6,-16.6,65,30.52,10.0,West,9.2,-,N/A,,Clear,280,2014-02-06 05:15:00
11:35 PM,-9.4,-16.6,71,30.53,10.0,West,9.2,-,N/A,,Clear,280,2014-02-06 05:35:00
11:55 PM,-9.4,-16.6,71,30.52,10.0,West,8.1,-,N/A,,Clear,270,2014-02-06 05:55:00